Regional Weather Roundup
Issued by NWS San Angelo, TX

Home | Current Version | Previous Version | Text Only | Print | Product List | Glossary On
Versions: 1 2 3 4 5 6 7 8 9 10 11 12 13 14 15 16 17 18 19 20 21 22 23 24 25 26 27 28 29 30 31 32 33 34 35 36 37 38 39 40 41 42 43 44 45 46 47 48 49 50
000
ASUS44 KSJT 240758
RWRSJT
WEST CENTRAL TEXAS REGIONAL WEATHER ROUNDUP
NATIONAL WEATHER SERVICE SAN ANGELO TX
300 AM CDT TUE MAY 24 2016

NOTE: "FAIR" INDICATES FEW OR NO CLOUDS BELOW 12,000 FEET WITH NO
SIGNIFICANT WEATHER AND/OR OBSTRUCTIONS TO VISIBILITY.

TXZ049-054-064>066-071>073-076>078-098-099-113-114-127-128-139-140-
154-155-168>170-240900
...LOCATIONS ACROSS WEST CENTRAL TEXAS...

CITY           SKY/WX    TMP DP  RH WIND       PRES   REMARKS
SAN ANGELO     CLOUDY    78  70  76 S9G20     29.85R
ABILENE        CLEAR     74  70  87 S16G28    29.84F
DYESS AFB      NOT AVBL
JUNCTION       CLOUDY    77  69  76 S13G25    29.88S
SWEETWATER     NOT AVBL
BROWNWOOD      CLOUDY    75  72  88 SE12      29.87F
COLEMAN        NOT AVBL
SONORA         NOT AVBL
OZONA          NOT AVBL
BRADY          NOT AVBL
$$

TEXAS PANHANDLE/OKLAHOMA PANHANDLE

CITY           SKY/WX    TMP DP  RH WIND       PRES   REMARKS
AMARILLO       CLEAR     64  61  90 S16       29.86F
BORGER         CLEAR     70  62  76 S25G35    29.79F
CANADIAN       NOT AVBL
DALHART        CLEAR     66  61  84 S23       29.85S
DUMAS          NOT AVBL
GUYMON         NOT AVBL
HEREFORD       SUNNY     68  66  92 S16G25    29.87S
PAMPA          NOT AVBL
PERRYTON       NOT AVBL
$$

SOUTHERN PANHANDLE/SOUTH PLAINS/ROLLING PLAINS

CITY           SKY/WX    TMP DP  RH WIND       PRES   REMARKS
LUBBOCK        PTCLDY    70  66  87 S10       29.87R
SNYDER         NOT AVBL
CHILDRESS      CLOUDY    73  71  93 SE15      29.85S
SEMINOLE       NOT AVBL
$$

PERMIAN BASIN

CITY           SKY/WX    TMP DP  RH WIND       PRES   REMARKS
MIDLAND        CLOUDY    76  68  76 S17       29.87R
ODESSA         PTCLDY    75  67  76 S14       29.87R
WINK           CLEAR     73  66  78 MISG      29.83R
$$

FAR WEST/SOUTHWEST MOUNTAINS/TRANS PECOS

CITY           SKY/WX    TMP DP  RH WIND       PRES   REMARKS
ALPINE         NOT AVBL
DRYDEN         NOT AVBL
EL PASO        PTCLDY    78  17  10 W21G35    29.90S
FORT STOCKTON  CLEAR     73  65  75 S17       29.84R
GUADALUPE PASS NOT AVBL
MARFA          NOT AVBL
PECOS          NOT AVBL
$$

DALLAS/FORT WORTH METROPLEX

CITY           SKY/WX    TMP DP  RH WIND       PRES   REMARKS
DFW AIRPORT    MOCLDY    77  70  79 S15       29.86F
FTW MEACHAM    MOCLDY    77  70  79 S14G23    29.86F
DAL-EXECUTIVE  CLOUDY    75  69  81 S14G24    29.88F
GRAND PRAIRIE  NOT AVBL
ADDISON        NOT AVBL
MESQUITE       NOT AVBL
LANCASTER      SUNNY     74  67  80 S10       29.90F
$$

NORTH CENTRAL TEXAS

CITY           SKY/WX    TMP DP  RH WIND       PRES   REMARKS
SHRMAN/DENISON NOT AVBL
GAINESVILLE    NOT AVBL
BRIDGEPORT     NOT AVBL
DENTON         PTCLDY    74  69  85 S10       29.87F
WAXAHACHIE     NOT AVBL
GRANBURY       NOT AVBL
$$

WESTERN NORTH TEXAS

CITY           SKY/WX    TMP DP  RH WIND       PRES   REMARKS
WICHITA FALLS  CLOUDY    74  70  87 S13       29.85R THUNDER
VERNON         NOT AVBL
BRECKENRIDGE   NOT AVBL
COMANCHE       NOT AVBL
$$

CENTRAL AND SOUTH CENTRAL TEXAS

CITY           SKY/WX    TMP DP  RH WIND       PRES   REMARKS
AUSTIN/BERGSTM CLOUDY    75  73  93 S9        29.89S
WACO           CLOUDY    75  70  84 SE15      29.89F
HILLSBORO      NOT AVBL
TEMPLE         MOCLDY    74  71  91 SE14      29.90F
KILLEEN-GRAY   NOT AVBL
FORT HOOD      NOT AVBL
GEORGETOWN     NOT AVBL
LAGO VISTA     NOT AVBL
SAN MARCOS     NOT AVBL
NEW BRAUNFELS  CLOUDY    76  73  91 S12       29.89F
RANDOLPH AFB   MOCLDY    75  75 100 S8        29.90F
SAN ANTONIO    CLOUDY    75  72  90 SE9       29.90F
STINSON        CLOUDY    77  72  84 SE8       29.86F
PLEASANTON     NOT AVBL
LA GRANGE      NOT AVBL
GIDDINGS       NOT AVBL
$$

EAST TEXAS

CITY           SKY/WX    TMP DP  RH WIND       PRES   REMARKS
PARIS          MOCLDY    70  61  73 SE8       29.90S
CLARKSVILLE    NOT AVBL
TYLER          PTCLDY    73  66  78 S9        29.92F
LONGVIEW       CLOUDY    71  68  90 S7        29.91F
PALESTINE      NOT AVBL
NACOGDOCHES    NOT AVBL
$$

TEXAS HILL COUNTRY AND EDWARDS PLATEAU

CITY           SKY/WX    TMP DP  RH WIND       PRES   REMARKS
LLANO          NOT AVBL
HORSESHOE BAY  NOT AVBL
KERRVILLE      NOT AVBL
FREDERICKSBRG  NOT AVBL
ROCKSPRINGS    NOT AVBL
HONDO          MOCLDY    75  72  90 SE15      29.88F
UVALDE         NOT AVBL
DEL RIO        CLOUDY    78  74  87 SE12      29.81R
$$

SOUTHEAST TEXAS

CITY           SKY/WX    TMP DP  RH WIND       PRES   REMARKS
COLLEGE STN    MOCLDY    73  71  93 SE7       29.92F
CALDWELL       NOT AVBL
CROCKETT       NOT AVBL
BRENHAM        NOT AVBL
HUNTSVILLE     CLOUDY    73  70  90 S3        29.95S
CONROE         CLOUDY    72  70  93 SE3       29.95S
HOUSTON BUSH   MOCLDY    73  72  96 E5        29.94S
HOUSTON HOBBY  CLOUDY    76  73  91 SE6       29.93S
PERLAND        CLOUDY    77  74  90 SE3       29.95S
WHARTON        NOT AVBL
$$

THE UPPER TEXAS COAST

CITY           SKY/WX    TMP DP  RH WIND       PRES   REMARKS
ORANGE         NOT AVBL
PORT ARTHUR    PTCLDY    74  71  91 SE5       29.95R
GALVESTON      MOCLDY    77  75  93 SE13      29.95S
ANGLETON       CLOUDY    76  74  93 SE3       29.92F
BAY CITY       NOT AVBL
$$

TEXAS COASTAL BEND, RIO GRANDE PLAINS DEEP SOUTH TEXAS

CITY           SKY/WX    TMP DP  RH WIND       PRES   REMARKS
VICTORIA       CLOUDY    76  74  93 E6        29.91S
BEEVILLE       NOT AVBL
ROCKPORT       MOCLDY    79  75  87 SE10      29.87F
PORT ARANSAS   NOT AVBL
PORT LAVACA    CLOUDY    76  76  99 SE5       29.90F
CORPUS CHRISTI CLOUDY    79  76  90 SE7       29.86F
KINGSVILLE NAS CLOUDY    79  79 100 SW7       29.88R
COTULLA        CLOUDY    79  73  82 SE16      29.82F
LAREDO         CLOUDY    78  73  84 SE20G31   29.75F
BROWNSVILLE    CLOUDY    80  77  90 E8        29.84F
PORT ISABEL    CLOUDY    81  78  91 SE8       29.84F
HEBBRONVILLE   NOT AVBL
MCALLEN        CLOUDY    81  76  84 SE6       29.87R
WESLACO        NOT AVBL
FALFURRIAS     NOT AVBL
EDINBURG       NOT AVBL
$$



USA.gov is the U.S. government's official web portal to all federal, state and local government web resources and services.